Theta_e
350 349 348 349 351 348 345 343 338 343 350 353 353 351 355 359 359 359 360 360 358 357 356 355 355 354 354 355 356 356 357 357 357 355 355 356 353 350 351 351 351 353
349 349 348 349 349 349 350 348 343 341 346 351 353 351 355 358 358 358 359 359 358 356 356 356 356 356 355 356 356 357 357 357 359 358 357 357 354 354 356 353 352 353
351 350 349 347 347 348 350 350 348 344 342 347 352 352 354 357 355 356 358 359 358 357 356 356 357 357 357 358 357 357 359 358 358 359 359 357 355 357 359 356 353 352
351 349 349 347 345 345 349 351 351 348 344 345 350 352 353 354 354 355 357 358 357 357 357 357 358 357 357 358 358 356 358 358 356 358 359 358 356 357 358 359 355 352
351 350 348 347 345 344 348 352 352 351 349 347 349 351 352 352 353 355 356 356 356 358 358 359 359 359 357 359 360 357 356 356 355 356 360 359 358 357 356 359 359 356
351 350 349 347 347 345 346 349 351 353 352 350 350 351 351 352 353 355 356 356 357 358 359 360 360 360 358 358 360 359 358 358 356 354 358 360 359 358 357 359 359 358
353 352 350 349 348 347 346 347 350 353 354 353 353 351 350 353 354 354 355 356 357 359 360 360 360 360 360 359 360 360 359 360 359 355 356 358 360 360 358 359 359 358
354 353 351 350 349 348 348 347 348 352 354 355 355 353 350 353 355 355 355 355 357 359 360 360 360 360 360 360 359 360 360 360 360 358 357 357 357 359 360 359 359 359
355 354 353 352 350 350 349 349 348 350 353 354 356 354 351 351 354 356 355 356 356 358 360 360 359 359 360 361 359 360 359 358 360 361 359 357 355 356 358 359 360 360
356 355 354 354 352 352 351 351 349 350 352 353 355 355 352 349 352 356 356 357 357 357 359 359 359 359 359 360 360 359 359 357 357 360 361 360 357 355 356 357 358 360
357 356 355 355 354 353 353 352 351 351 352 354 354 355 354 350 351 356 357 357 357 357 359 359 359 359 359 359 360 359 359 358 356 357 359 360 359 358 358 357 357 357
359 357 357 356 355 354 354 354 353 353 353 354 354 354 354 351 351 355 356 357 357 358 358 359 359 360 359 359 359 360 359 358 356 355 358 360 358 359 359 358 357 356
361 359 358 357 356 355 355 355 355 355 354 355 355 354 355 352 352 353 355 356 357 357 359 360 359 359 359 358 359 359 359 359 358 357 358 360 359 358 357 358 359 359
362 361 358 358 357 356 356 356 356 357 356 355 356 355 354 354 354 354 355 355 356 357 359 360 359 359 358 358 358 358 359 359 358 358 358 359 360 359 358 358 358 360
362 361 360 359 358 357 357 358 356 357 358 356 356 355 354 354 355 354 355 356 356 357 358 359 359 358 358 359 357 358 358 359 358 359 358 359 359 359 359 359 359 359
362 362 361 360 360 359 358 358 358 357 358 357 356 354 354 354 356 356 356 357 357 358 358 358 359 357 357 356 357 357 357 358 358 359 359 359 359 359 359 359 359 359
363 362 362 361 360 360 359 359 358 357 358 357 355 354 354 354 356 356 357 357 357 359 359 358 358 357 357 356 355 355 356 358 358 358 358 359 360 360 360 359 359 359
364 363 362 361 360 361 359 359 359 357 357 357 356 355 354 354 355 356 357 358 358 359 359 359 358 357 357 356 355 354 354 356 358 359 359 358 359 360 360 359 359 358
364 363 362 362 361 361 360 360 359 358 357 358 357 357 356 355 355 357 358 358 358 359 359 359 359 358 358 357 357 356 354 355 357 358 359 359 358 358 359 358 359 358
365 364 364 363 362 362 361 360 360 359 358 358 359 359 358 357 356 355 358 358 358 359 360 361 360 359 358 359 358 357 356 356 356 357 358 359 359 358 358 357 358 358
366 366 364 363 363 362 362 361 360 361 360 358 360 360 359 359 357 356 357 359 359 359 359 361 361 360 359 360 360 360 359 358 359 358 358 357 359 359 359 358 357 357
366 366 365 364 364 363 363 362 361 360 361 359 359 359 360 360 359 357 357 358 360 360 359 360 361 361 361 361 360 361 361 360 360 360 359 358 358 359 359 359 359 358
367 366 366 365 365 364 364 363 362 361 360 360 359 359 360 360 360 359 358 357 358 359 360 360 361 361 361 361 361 362 362 362 361 361 361 360 360 359 359 360 360 359
367 367 367 366 365 365 364 363 363 361 360 360 360 359 360 360 360 360 358 357 358 359 360 360 360 361 361 361 361 362 361 363 363 363 362 362 361 359 360 359 360 360
368 367 367 367 367 365 364 364 363 362 361 360 360 359 358 359 360 360 360 359 358 358 359 360 361 361 361 362 362 362 362 362 362 363 363 362 361 360 359 359 358 359
369 368 367 367 367 366 365 364 363 363 361 361 360 360 359 359 360 360 360 360 359 358 357 357 359 360 361 362 362 363 362 362 362 363 362 362 362 361 359 359 357 356
Wind_Speed
38 37 36 35 33 32 31 30 30 27 25 26 26 23 23 24 22 21 22 20 19 20 17 16 15 14 15 13 12 13 12 11 11 12 13 13 12 12 10 9 9 9
40 38 37 36 34 32 32 31 31 31 29 27 26 24 24 24 22 22 24 22 20 21 20 18 17 16 16 15 14 14 14 12 12 12 13 12 13 13 11 9 8 8
41 40 39 38 37 34 32 32 31 32 31 29 27 26 26 25 23 23 25 24 21 22 22 21 20 19 18 17 16 16 16 14 14 14 13 12 12 13 12 10 8 7
41 41 41 40 39 37 34 32 32 32 32 31 29 28 28 27 25 26 27 25 23 22 22 22 22 21 21 19 18 18 18 16 15 15 14 13 12 12 13 11 10 9
42 42 42 41 40 38 36 34 34 33 33 33 32 30 28 28 28 28 28 27 25 23 23 23 23 22 22 21 18 18 19 18 17 15 14 14 13 12 13 12 11 11
42 42 42 41 40 39 38 36 35 35 34 33 33 31 29 29 30 30 29 29 27 26 25 24 24 23 22 22 20 18 18 18 18 17 16 15 14 12 12 12 12 11
40 41 41 41 40 39 40 39 37 36 35 34 34 33 32 31 31 32 31 30 29 28 27 26 26 24 23 23 23 21 20 18 18 18 18 17 16 14 13 13 13 13
39 40 40 40 40 39 40 40 38 37 36 34 34 34 34 33 33 33 32 32 31 29 29 29 28 26 25 24 24 23 22 20 19 19 19 19 18 18 16 14 14 15
39 39 39 39 39 39 39 39 39 38 36 35 35 35 35 35 34 34 34 33 33 31 30 30 29 28 28 26 26 25 24 23 22 20 20 20 20 20 19 18 16 15
39 39 39 39 39 39 38 39 38 38 37 36 35 35 36 36 34 34 35 35 34 33 32 31 31 30 30 29 28 27 26 25 25 23 21 20 20 20 20 21 20 18
40 40 40 40 39 38 38 38 37 37 37 37 36 35 36 37 35 34 36 35 35 35 34 33 33 32 31 31 30 29 27 27 26 25 23 22 21 21 20 21 22 22
40 40 40 40 40 39 38 37 37 36 37 37 37 36 36 37 37 36 36 36 35 35 35 35 35 34 33 32 31 30 29 28 27 27 25 24 23 23 22 21 21 22
40 40 40 40 40 39 38 37 37 37 37 37 38 37 36 37 38 37 37 37 36 36 36 36 35 35 34 34 32 31 30 29 28 28 27 26 25 25 24 23 22 22
40 40 40 40 40 40 38 37 37 37 37 37 38 38 37 37 39 39 38 38 37 37 36 36 36 35 34 35 34 32 31 31 30 29 29 28 27 26 26 25 24 24
38 39 39 39 39 39 39 38 38 37 37 38 38 39 37 37 38 39 39 38 38 37 37 36 36 36 36 35 35 34 33 32 32 31 30 31 30 28 27 27 26 26
37 38 38 38 39 40 40 39 39 38 37 38 39 39 38 36 36 38 39 38 38 37 37 36 36 37 38 38 37 36 35 33 33 32 31 31 31 30 29 29 28 28
37 38 38 39 39 40 40 39 38 38 38 38 39 40 39 36 35 37 38 38 38 38 38 37 37 37 39 40 39 39 37 35 33 33 33 32 30 30 30 30 30 29
37 38 39 40 39 39 40 39 38 38 37 38 39 40 40 38 36 36 38 38 37 37 38 39 39 38 39 40 41 40 39 37 34 33 33 33 32 31 31 30 30 29
38 38 39 40 40 39 40 39 39 38 38 37 39 40 40 40 38 36 37 38 37 37 38 39 39 40 40 39 40 41 40 39 36 33 32 33 33 33 32 31 30 30
39 39 39 40 40 40 40 39 39 39 38 37 37 39 40 40 39 36 36 38 39 38 37 38 38 40 41 40 39 40 40 40 38 35 32 31 32 33 33 32 31 31
40 40 39 39 40 40 39 40 40 39 38 36 35 37 40 41 41 39 36 37 39 39 37 37 38 39 40 40 39 38 39 39 39 36 33 31 30 30 31 33 33 32
41 40 40 39 39 39 39 40 40 39 39 37 35 36 38 40 40 39 37 36 38 39 38 37 37 38 39 39 38 37 37 38 39 37 33 31 31 30 30 31 32 32
41 40 40 39 39 39 39 40 41 40 39 38 35 34 36 38 39 39 39 38 36 37 38 38 37 37 38 39 38 37 37 38 39 38 35 33 32 31 30 30 30 31
41 40 39 39 39 40 39 39 40 40 40 39 37 35 35 37 39 38 38 39 38 36 36 37 37 38 38 38 37 38 38 38 39 39 37 36 34 32 30 28 28 29
40 41 40 40 39 39 39 38 39 40 40 40 39 36 34 35 37 37 37 38 39 38 36 35 35 36 38 38 37 37 38 39 40 38 37 36 36 35 34 32 30 28
39 41 41 40 40 39 38 37 37 37 38 39 39 37 35 33 35 37 36 36 38 38 37 36 34 33 35 36 37 38 39 40 40 39 37 37 37 37 37 36 36 35
Wind_Direction
191 191 191 190 192 194 194 195 197 194 189 187 189 191 190 193 197 195 199 203 195 191 194 194 196 197 191 191 196 198 198 193 190 193 193 200 203 192 196 213 218 227
193 193 193 192 193 195 196 196 197 198 197 196 198 198 195 194 198 197 199 204 200 193 193 195 196 196 192 192 193 195 198 197 198 200 196 199 200 194 202 216 217 228
194 194 195 195 195 196 197 198 199 200 200 201 202 201 198 197 198 200 201 204 203 196 194 196 197 196 194 195 196 194 194 196 203 208 204 199 199 198 205 216 213 218
197 197 197 198 198 197 198 198 199 200 201 202 204 203 202 201 200 201 203 204 203 200 198 198 199 199 198 198 200 199 195 195 200 206 209 204 202 203 206 214 214 213
199 200 199 199 200 199 198 198 199 200 201 201 203 204 205 204 201 202 204 203 203 202 199 200 201 204 202 199 202 203 199 199 200 202 210 210 206 208 207 211 218 220
202 201 201 200 200 199 199 199 200 200 200 201 201 202 205 204 201 201 202 202 202 201 199 201 203 204 202 198 201 206 201 200 203 202 206 211 210 213 212 212 221 228
204 202 202 201 200 200 200 201 201 201 201 201 200 201 203 204 202 201 202 202 201 201 200 201 202 203 203 200 200 205 202 202 207 206 205 207 208 213 217 217 221 226
206 204 203 202 201 201 202 202 202 202 202 201 201 201 202 203 203 201 202 202 201 201 202 202 202 202 203 203 203 205 204 202 207 211 209 208 209 212 215 218 225 230
207 206 204 203 202 202 203 203 203 203 203 201 202 202 202 203 205 203 202 202 202 202 203 204 205 203 203 205 206 207 206 203 205 212 215 214 215 216 214 214 222 228
207 206 205 204 203 203 203 204 204 204 203 202 202 202 202 203 205 204 202 202 202 203 205 206 207 206 204 206 207 209 210 206 204 209 216 218 220 222 220 217 219 224
206 206 205 204 203 203 204 204 204 204 203 203 202 202 202 203 204 203 201 201 202 203 205 206 208 207 205 205 207 209 212 211 208 208 213 218 221 223 226 223 223 225
205 205 204 204 204 204 204 204 204 204 203 203 202 201 202 202 203 203 202 203 204 205 206 207 208 209 207 206 207 209 212 214 212 210 212 218 221 223 227 230 229 229
204 204 204 204 204 204 204 204 204 203 203 204 203 202 201 201 202 203 203 205 206 206 207 208 209 210 210 208 207 209 211 214 214 212 212 216 222 224 227 230 232 232
204 204 204 204 203 204 203 203 204 203 203 204 203 202 202 201 201 203 204 206 207 208 208 209 209 210 211 210 209 209 211 213 215 215 213 215 219 223 226 228 230 232
203 202 203 204 203 203 203 203 203 203 203 204 204 204 204 203 202 203 203 205 207 208 209 209 210 210 211 211 210 210 212 214 216 216 216 217 218 220 223 226 228 231
201 201 201 202 203 202 202 203 202 202 203 203 203 204 204 204 203 203 203 204 205 207 208 209 211 213 214 214 213 213 213 214 216 217 218 219 220 221 222 224 227 230
198 199 200 201 203 202 202 203 202 201 202 202 202 203 204 205 204 203 203 205 206 207 207 208 211 214 216 216 217 216 215 214 216 218 219 219 221 222 223 225 227 229
197 198 199 200 202 202 202 203 203 202 202 201 201 201 202 204 205 204 203 205 206 207 208 209 211 214 217 218 218 219 218 217 217 218 220 220 221 223 225 226 228 229
197 197 199 200 201 202 202 203 203 203 203 201 200 200 201 202 205 205 203 204 206 207 208 210 212 215 217 219 219 220 220 219 219 219 220 222 222 224 226 229 230 231
196 197 199 200 201 202 202 203 203 204 204 203 201 200 200 201 203 205 204 203 205 207 208 211 213 216 218 219 221 222 222 221 221 221 222 224 226 226 227 229 232 234
195 196 198 199 200 201 201 203 204 204 204 204 202 201 200 201 203 205 205 204 204 206 208 210 214 217 219 220 222 223 223 222 222 222 223 226 229 230 230 231 232 235
195 195 197 198 199 200 201 202 203 205 205 204 203 202 202 202 202 204 206 205 204 205 207 209 213 217 219 221 222 223 223 222 222 222 223 226 229 232 233 234 234 236
195 195 196 198 199 200 201 202 202 204 204 204 204 203 202 202 202 204 206 206 205 205 207 209 211 215 218 221 222 222 222 221 220 221 222 224 227 230 232 236 237 238
195 196 196 197 199 201 202 202 202 203 204 204 204 203 202 202 203 203 205 207 207 207 207 208 211 214 217 219 221 221 221 220 219 219 220 223 226 228 229 232 235 237
196 197 197 198 200 202 203 203 203 203 203 204 205 205 204 203 202 203 204 207 209 210 210 209 209 212 216 218 219 220 219 219 218 216 218 222 226 227 229 230 232 234
198 197 198 199 201 202 203 204 205 204 203 203 205 206 206 204 202 203 204 206 208 211 212 212 212 212 214 217 218 219 219 218 216 214 216 221 225 227 229 231 234 236